| time (UTC) | temp F | wind direction | speed MPH | gust MPH | rain 1hr in | rain 24hr in | rain mn in | humidity % | barometer mb |
| 20260903090323 | 56 | 100 | 0.0 | 0.0 | 0.00 | 0.00 | 0.00 | 64 | 1014.7 |
| 20260903085813 | 57 | 100 | 0.0 | 0.0 | 0.00 | 0.00 | 0.00 | 62 | 1014.7 |
| 20260903085325 | 57 | 100 | 0.0 | 0.0 | 0.00 | 0.00 | 0.00 | 62 | 1014.8 |
| 20260903084843 | 57 | 100 | 0.0 | 0.0 | 0.00 | 0.00 | 0.00 | 61 | 1014.8 |
| 20260903084334 | 58 | 100 | 0.0 | 0.0 | 0.00 | 0.00 | 0.00 | 60 | 1014.9 |
| 20260903083823 | 58 | 100 | 0.0 | 0.0 | 0.00 | 0.00 | 0.00 | 59 | 1015.0 |
| 20260903083327 | 58 | 100 | 0.0 | 0.0 | 0.00 | 0.00 | 0.00 | 59 | 1015.0 |
| 20260903082818 | 58 | 100 | 0.0 | 0.0 | 0.00 | 0.00 | 0.00 | 59 | 1014.9 |
| 20260903082329 | 58 | 100 | 0.0 | 0.0 | 0.00 | 0.00 | 0.00 | 59 | 1014.9 |
| 20260903081817 | 58 | 100 | 0.0 | 0.0 | 0.00 | 0.00 | 0.00 | 59 | 1015.0 |
| 20260903081326 | 59 | 100 | 0.0 | 0.0 | 0.00 | 0.00 | 0.00 | 59 | 1015.0 |
| 20260903080816 | 59 | 100 | 0.0 | 0.0 | 0.00 | 0.00 | 0.00 | 59 | 1015.0 |
| 20260903080327 | 59 | 100 | 0.0 | 0.0 | 0.00 | 0.00 | 0.00 | 59 | 1015.0 |
| 20260903075838 | 59 | 100 | 0.0 | 0.0 | 0.00 | 0.00 | 0.00 | 59 | 1015.0 |
| 20260903075326 | 59 | 100 | 0.0 | 0.0 | 0.00 | 0.00 | 0.00 | 60 | 1015.2 |
| 20260903074839 | 59 | 100 | 0.0 | 0.0 | 0.00 | 0.00 | 0.00 | 60 | 1015.1 |
| 20260903074330 | 59 | 100 | 0.0 | 0.0 | 0.00 | 0.00 | 0.00 | 60 | 1015.1 |
| 20260903073821 | 59 | 100 | 0.0 | 0.0 | 0.00 | 0.00 | 0.00 | 60 | 1015.1 |
| 20260903073312 | 59 | 100 | 0.0 | 0.0 | 0.00 | 0.00 | 0.00 | 60 | 1015.1 |
| 20260903072823 | 60 | 100 | 0.0 | 0.0 | 0.00 | 0.00 | 0.00 | 59 | 1015.1 |
| 20260903072334 | 60 | 100 | 0.0 | 0.0 | 0.00 | 0.00 | 0.00 | 59 | 1015.1 |
| 20260903071825 | 60 | 100 | 0.0 | 0.0 | 0.00 | 0.00 | 0.00 | 59 | 1015.1 |
| 20260903071320 | 60 | 100 | 0.0 | 0.0 | 0.00 | 0.00 | 0.00 | 60 | 1015.0 |
| 20260903070830 | 60 | 100 | 0.0 | 0.0 | 0.00 | 0.00 | 0.00 | 60 | 1015.1 |
| 20260903070322 | 60 | 100 | 0.0 | 0.0 | 0.00 | 0.00 | 0.00 | 60 | 1015.1 |
| 20260903065814 | 60 | 100 | 0.0 | 0.0 | 0.00 | 0.00 | 0.00 | 60 | 1015.2 |
| 20260903065325 | 61 | 100 | 0.0 | 0.0 | 0.00 | 0.00 | 0.00 | 60 | 1015.1 |
| 20260903064835 | 61 | 100 | 0.0 | 0.0 | 0.00 | 0.00 | 0.00 | 60 | 1015.2 |
| 20260903064325 | 61 | 100 | 0.0 | 0.0 | 0.00 | 0.00 | 0.00 | 60 | 1015.1 |
| 20260903063816 | 61 | 100 | 0.0 | 0.0 | 0.00 | 0.00 | 0.00 | 60 | 1015.2 |
| 20260903063326 | 61 | 100 | 0.0 | 0.0 | 0.00 | 0.00 | 0.00 | 59 | 1015.3 |
| 20260903062819 | 62 | 100 | 0.0 | 0.0 | 0.00 | 0.00 | 0.00 | 59 | 1015.2 |
| 20260903062315 | 62 | 100 | 0.0 | 0.0 | 0.00 | 0.00 | 0.00 | 59 | 1015.3 |
| 20260903061826 | 63 | 100 | 0.0 | 0.0 | 0.00 | 0.00 | 0.00 | 59 | 1015.3 |
| 20260903061318 | 63 | 100 | 0.0 | 0.0 | 0.00 | 0.00 | 0.00 | 58 | 1015.2 |
| 20260903060828 | 63 | 100 | 0.0 | 0.0 | 0.00 | 0.00 | 0.00 | 57 | 1015.2 |
| 20260903060318 | 64 | 100 | 0.0 | 0.0 | 0.00 | 0.00 | 0.00 | 57 | 1015.3 |
| 20260903055849 | 64 | 100 | 0.0 | 0.0 | 0.00 | 0.00 | 0.00 | 57 | 1015.3 |
| 20260903055320 | 64 | 100 | 0.0 | 0.0 | 0.00 | 0.00 | 0.00 | 56 | 1015.3 |
| 20260903054831 | 65 | 100 | 0.0 | 0.0 | 0.00 | 0.00 | 0.00 | 56 | 1015.3 |
| 20260903054321 | 65 | 100 | 0.0 | 0.0 | 0.00 | 0.00 | 0.00 | 55 | 1015.3 |
| 20260903053854 | 66 | 100 | 0.0 | 0.0 | 0.00 | 0.00 | 0.00 | 53 | 1015.4 |
| 20260903053323 | 66 | 100 | 0.0 | 0.0 | 0.00 | 0.00 | 0.00 | 52 | 1015.4 |
| 20260903052917 | 66 | 100 | 0.0 | 0.0 | 0.00 | 0.00 | 0.00 | 50 | 1015.3 |
| 20260903052403 | 67 | 100 | 0.0 | 0.0 | 0.00 | 0.00 | 0.00 | 50 | 1015.3 |
| 20260903051812 | 67 | 100 | 0.0 | 0.0 | 0.00 | 0.00 | 0.00 | 49 | 1015.3 |
| 20260903051323 | 67 | 100 | 0.0 | 0.0 | 0.00 | 0.00 | 0.00 | 49 | 1015.3 |
| 20260903050818 | 68 | 100 | 0.0 | 0.0 | 0.00 | 0.00 | 0.00 | 48 | 1015.2 |
| 20260903050330 | 68 | 100 | 0.0 | 0.0 | 0.00 | 0.00 | 0.00 | 47 | 1015.1 |
| 20260903045821 | 68 | 100 | 0.0 | 0.0 | 0.00 | 0.00 | 0.00 | 47 | 1015.2 |
| 20260903045333 | 68 | 100 | 0.0 | 0.0 | 0.00 | 0.00 | 0.00 | 47 | 1015.3 |
| 20260903044844 | 69 | 191 | 0.0 | 0.0 | 0.00 | 0.00 | 0.00 | 45 | 1015.1 |
| 20260903044315 | 69 | 191 | 0.0 | 0.0 | 0.00 | 0.00 | 0.00 | 43 | 1015.2 |
| 20260903043846 | 70 | 191 | 0.0 | 1.0 | 0.00 | 0.00 | 0.00 | 42 | 1015.1 |
| 20260903043316 | 70 | 230 | 0.0 | 3.0 | 0.00 | 0.00 | 0.00 | 41 | 1015.0 |
| 20260903042827 | 70 | 191 | 1.0 | 4.0 | 0.00 | 0.00 | 0.00 | 41 | 1014.9 |
| 20260903042317 | 70 | 234 | 2.0 | 4.0 | 0.00 | 0.00 | 0.00 | 41 | 1014.9 |
| 20260903041811 | 70 | 233 | 0.0 | 4.0 | 0.00 | 0.00 | 0.00 | 43 | 1014.8 |
| 20260903041323 | 70 | 210 | 1.0 | 5.0 | 0.00 | 0.00 | 0.00 | 44 | 1014.9 |
| 20260903040835 | 70 | 219 | 2.0 | 5.0 | 0.00 | 0.00 | 0.00 | 45 | 1014.8 |
| 20260903040326 | 70 | 217 | 0.0 | 2.0 | 0.00 | 0.00 | 0.00 | 45 | 1014.8 |
| 20260903035837 | 70 | 228 | 0.0 | 0.0 | 0.00 | 0.00 | 0.00 | 45 | 1014.8 |
| 20260903035328 | 70 | 197 | 0.0 | 0.0 | 0.00 | 0.00 | 0.00 | 46 | 1014.6 |
| 20260903034822 | 70 | 197 | 0.0 | 0.0 | 0.00 | 0.00 | 0.00 | 45 | 1014.7 |
| 20260903034313 | 70 | 197 | 0.0 | 0.0 | 0.00 | 0.00 | 0.00 | 45 | 1014.6 |
| 20260903033824 | 71 | 197 | 0.0 | 0.0 | 0.00 | 0.00 | 0.00 | 44 | 1014.6 |
| 20260903033316 | 71 | 197 | 0.0 | 0.0 | 0.00 | 0.00 | 0.00 | 43 | 1014.5 |
| 20260903032812 | 72 | 197 | 0.0 | 0.0 | 0.00 | 0.00 | 0.00 | 43 | 1014.5 |
| 20260903032322 | 72 | 197 | 0.0 | 2.0 | 0.00 | 0.00 | 0.00 | 42 | 1014.5 |
| 20260903031834 | 72 | 211 | 0.0 | 4.0 | 0.00 | 0.00 | 0.00 | 42 | 1014.5 |
| 20260903031322 | 72 | 226 | 2.0 | 4.0 | 0.00 | 0.00 | 0.00 | 42 | 1014.5 |
| 20260903030812 | 73 | 223 | 1.0 | 3.0 | 0.00 | 0.00 | 0.00 | 41 | 1014.4 |
| 20260903030345 | 73 | 240 | 2.0 | 4.0 | 0.00 | 0.00 | 0.00 | 41 | 1014.3 |
| 20260903025815 | 73 | 219 | 0.0 | 5.0 | 0.00 | 0.00 | 0.00 | 40 | 1014.2 |
| 20260903025328 | 73 | 209 | 3.0 | 5.0 | 0.00 | 0.00 | 0.00 | 39 | 1014.2 |
| 20260903024811 | 74 | 240 | 3.0 | 5.0 | 0.00 | 0.00 | 0.00 | 38 | 1014.2 |
| 20260903024323 | 74 | 210 | 0.0 | 3.0 | 0.00 | 0.00 | 0.00 | 37 | 1014.2 |
| 20260903023818 | 74 | 232 | 1.0 | 5.0 | 0.00 | 0.00 | 0.00 | 37 | 1014.1 |
| 20260903023331 | 74 | 188 | 2.0 | 5.0 | 0.00 | 0.00 | 0.00 | 36 | 1014.0 |
| 20260903022822 | 75 | 271 | 1.0 | 4.0 | 0.00 | 0.00 | 0.00 | 35 | 1014.0 |
| 20260903022355 | 75 | 272 | 1.0 | 6.0 | 0.00 | 0.00 | 0.00 | 34 | 1013.9 |
| 20260903021830 | 76 | 260 | 3.0 | 6.0 | 0.00 | 0.00 | 0.00 | 33 | 1013.9 |
| 20260903021322 | 77 | 275 | 2.0 | 5.0 | 0.00 | 0.00 | 0.00 | 30 | 1014.0 |
| 20260903020813 | 77 | 199 | 1.0 | 3.0 | 0.00 | 0.00 | 0.00 | 30 | 1013.9 |
| 20260903020324 | 78 | 202 | 1.0 | 5.0 | 0.00 | 0.00 | 0.00 | 29 | 1013.9 |
| 20260903015924 | 79 | 220 | 2.0 | 6.0 | 0.00 | 0.00 | 0.00 | 28 | 1013.8 |
| 20260903015836 | 79 | 220 | 2.0 | 6.0 | 0.00 | 0.00 | 0.00 | 28 | 1013.8 |
| 20260903015316 | 79 | 203 | 2.0 | 6.0 | 0.00 | 0.00 | 0.00 | 27 | 1013.6 |
| 20260903014828 | 80 | 266 | 3.0 | 8.0 | 0.00 | 0.00 | 0.00 | 27 | 1013.7 |
| 20260903014401 | 80 | 221 | 4.0 | 8.0 | 0.00 | 0.00 | 0.00 | 27 | 1013.5 |
| 20260903014319 | 80 | 221 | 4.0 | 8.0 | 0.00 | 0.00 | 0.00 | 27 | 1013.5 |
| 20260903013829 | 80 | 210 | 2.0 | 7.0 | 0.00 | 0.00 | 0.00 | 26 | 1013.5 |
| 20260903013343 | 81 | 227 | 2.0 | 8.0 | 0.00 | 0.00 | 0.00 | 25 | 1013.4 |
| 20260903012813 | 81 | 247 | 4.0 | 11.0 | 0.00 | 0.00 | 0.00 | 25 | 1013.3 |
| 20260903012404 | 82 | 212 | 5.0 | 11.0 | 0.00 | 0.00 | 0.00 | 25 | 1013.3 |
| 20260903011812 | 82 | 235 | 4.0 | 12.0 | 0.00 | 0.00 | 0.00 | 24 | 1013.3 |
| 20260903011323 | 82 | 226 | 6.0 | 13.0 | 0.00 | 0.00 | 0.00 | 25 | 1013.2 |
| 20260903010815 | 83 | 248 | 5.0 | 13.0 | 0.00 | 0.00 | 0.00 | 24 | 1013.2 |
| 20260903010326 | 84 | 278 | 4.0 | 12.0 | 0.00 | 0.00 | 0.00 | 23 | 1013.2 |
| 20260903005839 | 85 | 219 | 6.0 | 11.0 | 0.00 | 0.00 | 0.00 | 21 | 1013.1 |
| 20260903005313 | 85 | 206 | 6.0 | 11.0 | 0.00 | 0.00 | 0.00 | 21 | 1013.0 |
| 20260903004824 | 86 | 213 | 5.0 | 9.0 | 0.00 | 0.00 | 0.00 | 21 | 1013.0 |
| 20260903004315 | 86 | 264 | 4.0 | 12.0 | 0.00 | 0.00 | 0.00 | 20 | 1012.9 |
| 20260903003827 | 86 | 219 | 6.0 | 13.0 | 0.00 | 0.00 | 0.00 | 18 | 1012.8 |
| 20260903003319 | 87 | 236 | 5.0 | 13.0 | 0.00 | 0.00 | 0.00 | 18 | 1012.9 |
| 20260903002830 | 87 | 188 | 5.0 | 12.0 | 0.00 | 0.00 | 0.00 | 17 | 1012.9 |
| 20260903002342 | 87 | 223 | 7.0 | 12.0 | 0.00 | 0.00 | 0.00 | 17 | 1012.9 |
| 20260903001831 | 88 | 212 | 4.0 | 10.0 | 0.00 | 0.00 | 0.00 | 18 | 1012.9 |
| 20260903001322 | 88 | 165 | 5.0 | 11.0 | 0.00 | 0.00 | 0.00 | 17 | 1012.8 |
| 20260903000834 | 88 | 186 | 4.0 | 11.0 | 0.00 | 0.00 | 0.00 | 18 | 1012.9 |
| 20260903000406 | 88 | 207 | 5.0 | 10.0 | 0.00 | 0.00 | 0.00 | 17 | 1013.0 |
| 20260902235820 | 88 | 241 | 3.0 | 10.0 | 0.00 | 0.00 | 0.00 | 17 | 1013.0 |
| 20260902235311 | 88 | 242 | 3.0 | 9.0 | 0.00 | 0.00 | 0.00 | 18 | 1012.8 |
| 20260902234844 | 88 | 236 | 3.0 | 10.0 | 0.00 | 0.00 | 0.00 | 18 | 1012.9 |
| 20260902234354 | 88 | 218 | 2.0 | 10.0 | 0.00 | 0.00 | 0.00 | 17 | 1013.0 |
| 20260902233844 | 88 | 230 | 1.0 | 9.0 | 0.00 | 0.00 | 0.00 | 18 | 1013.1 |
| 20260902233314 | 88 | 276 | 1.0 | 9.0 | 0.00 | 0.00 | 0.00 | 18 | 1013.1 |
| 20260902232847 | 88 | 181 | 1.0 | 7.0 | 0.00 | 0.00 | 0.00 | 17 | 1013.2 |
| 20260902232318 | 88 | 248 | 4.0 | 8.0 | 0.00 | 0.00 | 0.00 | 17 | 1013.2 |
| 20260902231829 | 88 | 215 | 3.0 | 5.0 | 0.00 | 0.00 | 0.00 | 17 | 1013.3 |
| 20260902231320 | 88 | 213 | 3.0 | 9.0 | 0.00 | 0.00 | 0.00 | 16 | 1013.3 |
| 20260902230811 | 88 | 219 | 5.0 | 8.0 | 0.00 | 0.00 | 0.00 | 18 | 1013.3 |
| 20260902230327 | 88 | 290 | 3.0 | 10.0 | 0.00 | 0.00 | 0.00 | 17 | 1013.4 |
| 20260902225816 | 88 | 229 | 5.0 | 10.0 | 0.00 | 0.00 | 0.00 | 17 | 1013.4 |
| 20260902225328 | 88 | 179 | 1.0 | 10.0 | 0.00 | 0.00 | 0.00 | 17 | 1013.4 |
| 20260902224840 | 88 | 233 | 5.0 | 10.0 | 0.00 | 0.00 | 0.00 | 17 | 1013.4 |
| 20260902224330 | 88 | 240 | 3.0 | 12.0 | 0.00 | 0.00 | 0.00 | 17 | 1013.4 |
| 20260902223822 | 88 | 192 | 6.0 | 12.0 | 0.00 | 0.00 | 0.00 | 17 | 1013.5 |
| 20260902223332 | 89 | 220 | 5.0 | 10.0 | 0.00 | 0.00 | 0.00 | 17 | 1013.5 |
| 20260902222904 | 89 | 239 | 3.0 | 8.0 | 0.00 | 0.00 | 0.00 | 17 | 1013.5 |
| 20260902222334 | 89 | 181 | 3.0 | 11.0 | 0.00 | 0.00 | 0.00 | 17 | 1013.5 |
| 20260902221826 | 89 | 285 | 4.0 | 9.0 | 0.00 | 0.00 | 0.00 | 18 | 1013.7 |
| 20260902221358 | 88 | 190 | 4.0 | 11.0 | 0.00 | 0.00 | 0.00 | 18 | 1013.9 |
| 20260902220826 | 88 | 185 | 4.0 | 11.0 | 0.00 | 0.00 | 0.00 | 18 | 1013.9 |
| 20260902220318 | 88 | 264 | 3.0 | 8.0 | 0.00 | 0.00 | 0.00 | 19 | 1013.9 |
| 20260902215850 | 88 | 278 | 3.0 | 8.0 | 0.00 | 0.00 | 0.00 | 18 | 1014.1 |
| 20260902215320 | 88 | 166 | 3.0 | 9.0 | 0.00 | 0.00 | 0.00 | 18 | 1014.1 |
| 20260902214814 | 88 | 222 | 3.0 | 12.0 | 0.00 | 0.00 | 0.00 | 19 | 1014.1 |
| 20260902214324 | 88 | 235 | 1.0 | 14.0 | 0.00 | 0.00 | 0.00 | 16 | 1014.2 |
| 20260902213836 | 87 | 212 | 7.0 | 14.0 | 0.00 | 0.00 | 0.00 | 17 | 1014.4 |
| 20260902213346 | 87 | 203 | 4.0 | 14.0 | 0.00 | 0.00 | 0.00 | 17 | 1014.5 |
| 20260902212817 | 87 | 210 | 7.0 | 14.0 | 0.00 | 0.00 | 0.00 | 17 | 1014.4 |
| 20260902212328 | 87 | 211 | 5.0 | 9.0 | 0.00 | 0.00 | 0.00 | 14 | 1014.5 |
| 20260902211818 | 88 | 202 | 4.0 | 9.0 | 0.00 | 0.00 | 0.00 | 16 | 1014.4 |
| 20260902211349 | 87 | 214 | 4.0 | 11.0 | 0.00 | 0.00 | 0.00 | 17 | 1014.5 |
| 20260902210840 | 87 | 204 | 4.0 | 11.0 | 0.00 | 0.00 | 0.00 | 17 | 1014.6 |
| 20260902210311 | 87 | 272 | 4.0 | 11.0 | 0.00 | 0.00 | 0.00 | 18 | 1014.6 |
| 20260902205843 | 87 | 250 | 4.0 | 15.0 | 0.00 | 0.00 | 0.00 | 17 | 1014.7 |
| 20260902205312 | 88 | 195 | 5.0 | 10.0 | 0.00 | 0.00 | 0.00 | 17 | 1014.7 |
| 20260902204828 | 88 | 275 | 5.0 | 11.0 | 0.00 | 0.00 | 0.00 | 16 | 1014.7 |
| 20260902204319 | 87 | 214 | 7.0 | 11.0 | 0.00 | 0.00 | 0.00 | 17 | 1014.7 |
| 20260902203827 | 87 | 203 | 5.0 | 10.0 | 0.00 | 0.00 | 0.00 | 17 | 1014.8 |
| 20260902203318 | 87 | 202 | 4.0 | 10.0 | 0.00 | 0.00 | 0.00 | 16 | 1014.8 |
| 20260902202850 | 86 | 238 | 6.0 | 10.0 | 0.00 | 0.00 | 0.00 | 18 | 1014.9 |
| 20260902202320 | 87 | 249 | 5.0 | 9.0 | 0.00 | 0.00 | 0.00 | 19 | 1015.0 |
| 20260902201812 | 87 | 295 | 5.0 | 11.0 | 0.00 | 0.00 | 0.00 | 20 | 1014.9 |
| 20260902201344 | 87 | 183 | 4.0 | 11.0 | 0.00 | 0.00 | 0.00 | 17 | 1014.9 |
| 20260902200834 | 86 | 86 | 4.0 | 11.0 | 0.00 | 0.00 | 0.00 | 19 | 1014.9 |
| 20260902200325 | 86 | 240 | 4.0 | 11.0 | 0.00 | 0.00 | 0.00 | 20 | 1015.0 |
| 20260902195818 | 86 | 249 | 3.0 | 9.0 | 0.00 | 0.00 | 0.00 | 19 | 1015.0 |
| 20260902195331 | 87 | 193 | 5.0 | 9.0 | 0.00 | 0.00 | 0.00 | 18 | 1015.1 |
| 20260902194823 | 86 | 200 | 4.0 | 9.0 | 0.00 | 0.00 | 0.00 | 18 | 1015.1 |
| 20260902194314 | 85 | 175 | 4.0 | 9.0 | 0.00 | 0.00 | 0.00 | 20 | 1015.2 |
| 20260902193831 | 86 | 222 | 3.0 | 9.0 | 0.00 | 0.00 | 0.00 | 20 | 1015.1 |
| 20260902193322 | 86 | 217 | 4.0 | 11.0 | 0.00 | 0.00 | 0.00 | 18 | 1015.1 |
| 20260902192813 | 86 | 305 | 2.0 | 9.0 | 0.00 | 0.00 | 0.00 | 19 | 1015.2 |
| 20260902192324 | 86 | 255 | 3.0 | 11.0 | 0.00 | 0.00 | 0.00 | 19 | 1015.2 |
| 20260902191814 | 86 | 225 | 5.0 | 8.0 | 0.00 | 0.00 | 0.00 | 17 | 1015.2 |
| 20260902191325 | 85 | 238 | 3.0 | 7.0 | 0.00 | 0.00 | 0.00 | 19 | 1015.3 |
| 20260902190819 | 85 | 267 | 4.0 | 7.0 | 0.00 | 0.00 | 0.00 | 18 | 1015.3 |
| 20260902190311 | 85 | 203 | 3.0 | 7.0 | 0.00 | 0.00 | 0.00 | 17 | 1015.3 |
| 20260902185823 | 85 | 235 | 3.0 | 7.0 | 0.00 | 0.00 | 0.00 | 18 | 1015.4 |
| 20260902185313 | 85 | 274 | 3.0 | 10.0 | 0.00 | 0.00 | 0.00 | 18 | 1015.5 |
| 20260902184845 | 85 | 224 | 4.0 | 6.0 | 0.00 | 0.00 | 0.00 | 20 | 1015.4 |
| 20260902184314 | 85 | 207 | 3.0 | 6.0 | 0.00 | 0.00 | 0.00 | 23 | 1015.5 |
| 20260902183827 | 84 | 212 | 0.0 | 4.0 | 0.00 | 0.00 | 0.00 | 22 | 1015.5 |
| 20260902183337 | 84 | 229 | 1.0 | 8.0 | 0.00 | 0.00 | 0.00 | 22 | 1015.6 |
| 20260902182823 | 83 | 228 | 0.0 | 6.0 | 0.00 | 0.00 | 0.00 | 23 | 1015.5 |
| 20260902182355 | 83 | 133 | 2.0 | 6.0 | 0.00 | 0.00 | 0.00 | 23 | 1015.7 |
| 20260902181820 | 82 | 316 | 1.0 | 7.0 | 0.00 | 0.00 | 0.00 | 24 | 1015.8 |
| 20260902181352 | 83 | 231 | 2.0 | 7.0 | 0.00 | 0.00 | 0.00 | 22 | 1015.9 |
| 20260902180843 | 82 | 144 | 1.0 | 4.0 | 0.00 | 0.00 | 0.00 | 24 | 1016.0 |
| 20260902180351 | 81 | 271 | 2.0 | 4.0 | 0.00 | 0.00 | 0.00 | 24 | 1016.0 |
| 20260902175846 | 80 | 217 | 1.0 | 6.0 | 0.00 | 0.00 | 0.00 | 25 | 1016.0 |
| 20260902175337 | 80 | 289 | 2.0 | 6.0 | 0.00 | 0.00 | 0.00 | 24 | 1016.1 |
| 20260902174811 | 80 | 269 | 1.0 | 6.0 | 0.00 | 0.00 | 0.00 | 24 | 1016.2 |
| 20260902174343 | 80 | 176 | 2.0 | 6.0 | 0.00 | 0.00 | 0.00 | 25 | 1016.1 |
| 20260902173813 | 79 | 224 | 1.0 | 5.0 | 0.00 | 0.00 | 0.00 | 24 | 1016.2 |
| 20260902173326 | 79 | 266 | 3.0 | 5.0 | 0.00 | 0.00 | 0.00 | 24 | 1016.2 |
| 20260902172816 | 79 | 243 | 1.0 | 3.0 | 0.00 | 0.00 | 0.00 | 24 | 1016.1 |
| 20260902172328 | 78 | 264 | 1.0 | 4.0 | 0.00 | 0.00 | 0.00 | 24 | 1016.1 |
| 20260902171820 | 78 | 203 | 1.0 | 4.0 | 0.00 | 0.00 | 0.00 | 25 | 1016.2 |
| 20260902171311 | 77 | 221 | 1.0 | 4.0 | 0.00 | 0.00 | 0.00 | 25 | 1016.2 |
| 20260902170843 | 77 | 48 | 0.0 | 3.0 | 0.00 | 0.00 | 0.00 | 25 | 1016.2 |
| 20260902170329 | 76 | 250 | 0.0 | 3.0 | 0.00 | 0.00 | 0.00 | 25 | 1016.2 |
| 20260902165818 | 76 | 295 | 0.0 | 4.0 | 0.00 | 0.00 | 0.00 | 26 | 1016.1 |
| 20260902165312 | 75 | 33 | 1.0 | 4.0 | 0.00 | 0.00 | 0.00 | 27 | 1016.1 |
| 20260902164905 | 75 | 326 | 1.0 | 4.0 | 0.00 | 0.00 | 0.00 | 26 | 1016.2 |
| 20260902164313 | 74 | 44 | 1.0 | 4.0 | 0.00 | 0.00 | 0.00 | 27 | 1016.1 |
| 20260902163829 | 74 | 302 | 2.0 | 4.0 | 0.00 | 0.00 | 0.00 | 25 | 1016.1 |
| 20260902163311 | 74 | 277 | 0.0 | 2.0 | 0.00 | 0.00 | 0.00 | 26 | 1016.0 |
| 20260902162822 | 73 | 328 | 1.0 | 2.0 | 0.00 | 0.00 | 0.00 | 26 | 1016.1 |
| 20260902162354 | 73 | 341 | 0.0 | 3.0 | 0.00 | 0.00 | 0.00 | 28 | 1016.1 |
| 20260902161818 | 72 | 25 | 0.0 | 3.0 | 0.00 | 0.00 | 0.00 | 28 | 1016.1 |
| 20260902161329 | 72 | 285 | 0.0 | 1.0 | 0.00 | 0.00 | 0.00 | 30 | 1016.1 |
| 20260902160841 | 72 | 69 | 0.0 | 2.0 | 0.00 | 0.00 | 0.00 | 31 | 1016.0 |
| 20260902160351 | 71 | 308 | 0.0 | 2.0 | 0.00 | 0.00 | 0.00 | 32 | 1016.0 |
| 20260902155817 | 72 | 308 | 0.0 | 0.0 | 0.00 | 0.00 | 0.00 | 31 | 1016.1 |
| 20260902155328 | 71 | 122 | 0.0 | 0.0 | 0.00 | 0.00 | 0.00 | 32 | 1016.2 |
| 20260902154823 | 70 | 122 | 0.0 | 1.0 | 0.00 | 0.00 | 0.00 | 33 | 1016.2 |
| 20260902154347 | 70 | 132 | 0.0 | 1.0 | 0.00 | 0.00 | 0.00 | 33 | 1016.1 |
| 20260902153818 | 70 | 140 | 0.0 | 1.0 | 0.00 | 0.00 | 0.00 | 33 | 1016.1 |
| 20260902153329 | 70 | 142 | 0.0 | 0.0 | 0.00 | 0.00 | 0.00 | 33 | 1016.1 |
| 20260902152821 | 68 | 179 | 0.0 | 0.0 | 0.00 | 0.00 | 0.00 | 34 | 1016.1 |
| 20260902152333 | 68 | 179 | 0.0 | 0.0 | 0.00 | 0.00 | 0.00 | 34 | 1016.2 |
| 20260902151844 | 67 | 179 | 0.0 | 0.0 | 0.00 | 0.00 | 0.00 | 34 | 1016.2 |
| 20260902151355 | 67 | 202 | 0.0 | 0.0 | 0.00 | 0.00 | 0.00 | 32 | 1016.2 |
| 20260902151313 | 67 | 202 | 0.0 | 0.0 | 0.00 | 0.00 | 0.00 | 32 | 1016.2 |
| 20260902150845 | 67 | 202 | 0.0 | 0.0 | 0.00 | 0.00 | 0.00 | 32 | 1016.3 |
| 20260902150334 | 66 | 202 | 0.0 | 0.0 | 0.00 | 0.00 | 0.00 | 34 | 1016.2 |
| 20260902145824 | 66 | 202 | 0.0 | 0.0 | 0.00 | 0.00 | 0.00 | 34 | 1016.1 |
| 20260902145316 | 65 | 224 | 0.0 | 0.0 | 0.00 | 0.00 | 0.00 | 36 | 1016.1 |
| 20260902144824 | 63 | 224 | 0.0 | 1.0 | 0.00 | 0.00 | 0.00 | 38 | 1016.1 |
| 20260902144335 | 62 | 224 | 0.0 | 1.0 | 0.00 | 0.00 | 0.00 | 38 | 1016.1 |
| 20260902143826 | 62 | 191 | 0.0 | 1.0 | 0.00 | 0.00 | 0.00 | 39 | 1016.0 |
| 20260902143338 | 61 | 190 | 0.0 | 0.0 | 0.00 | 0.00 | 0.00 | 38 | 1015.8 |
| 20260902142827 | 60 | 190 | 0.0 | 0.0 | 0.00 | 0.00 | 0.00 | 41 | 1015.9 |
| 20260902142340 | 59 | 191 | 0.0 | 0.0 | 0.00 | 0.00 | 0.00 | 42 | 1015.6 |
| 20260902141906 | 58 | 190 | 0.0 | 0.0 | 0.00 | 0.00 | 0.00 | 45 | 1015.7 |
| 20260902141319 | 55 | 190 | 0.0 | 0.0 | 0.00 | 0.00 | 0.00 | 48 | 1015.6 |
| 20260902140927 | 54 | 190 | 0.0 | 0.0 | 0.00 | 0.00 | 0.00 | 47 | 1015.6 |
| 20260902140824 | 54 | 190 | 0.0 | 0.0 | 0.00 | 0.00 | 0.00 | 47 | 1015.6 |
| 20260902140319 | 54 | 191 | 0.0 | 0.0 | 0.00 | 0.00 | 0.00 | 47 | 1015.4 |
| 20260902135851 | 54 | 191 | 0.0 | 0.0 | 0.00 | 0.00 | 0.00 | 47 | 1015.4 |
| 20260902135402 | 54 | 191 | 0.0 | 0.0 | 0.00 | 0.00 | 0.00 | 49 | 1015.3 |
| 20260902135320 | 54 | 191 | 0.0 | 0.0 | 0.00 | 0.00 | 0.00 | 49 | 1015.3 |
| 20260902134811 | 53 | 191 | 0.0 | 0.0 | 0.00 | 0.00 | 0.00 | 49 | 1015.2 |
| 20260902134324 | 53 | 191 | 0.0 | 0.0 | 0.00 | 0.00 | 0.00 | 49 | 1015.1 |
| 20260902133835 | 53 | 191 | 0.0 | 0.0 | 0.00 | 0.00 | 0.00 | 49 | 1015.1 |
| 20260902133325 | 54 | 191 | 0.0 | 0.0 | 0.00 | 0.00 | 0.00 | 48 | 1015.0 |
| 20260902132816 | 54 | 191 | 0.0 | 0.0 | 0.00 | 0.00 | 0.00 | 47 | 1015.1 |
| 20260902132329 | 54 | 191 | 0.0 | 1.0 | 0.00 | 0.00 | 0.00 | 47 | 1015.2 |
| 20260902131820 | 54 | 191 | 0.0 | 1.0 | 0.00 | 0.00 | 0.00 | 47 | 1015.2 |
| 20260902131313 | 54 | 231 | 0.0 | 1.0 | 0.00 | 0.00 | 0.00 | 48 | 1015.1 |
| 20260902130829 | 54 | 232 | 0.0 | 1.0 | 0.00 | 0.00 | 0.00 | 48 | 1015.2 |
| 20260902130320 | 54 | 264 | 0.0 | 1.0 | 0.00 | 0.00 | 0.00 | 48 | 1015.2 |
| 20260902125831 | 54 | 264 | 0.0 | 1.0 | 0.00 | 0.00 | 0.00 | 47 | 1015.1 |
| 20260902125322 | 54 | 141 | 0.0 | 0.0 | 0.00 | 0.00 | 0.00 | 48 | 1015.2 |
| 20260902124834 | 54 | 141 | 0.0 | 0.0 | 0.00 | 0.00 | 0.00 | 47 | 1015.3 |
| 20260902124324 | 54 | 142 | 0.0 | 0.0 | 0.00 | 0.00 | 0.00 | 46 | 1015.4 |
| 20260902123816 | 54 | 141 | 0.0 | 0.0 | 0.00 | 0.00 | 0.00 | 45 | 1015.4 |
| 20260902123328 | 54 | 141 | 0.0 | 0.0 | 0.00 | 0.00 | 0.00 | 45 | 1015.5 |
| 20260902122839 | 55 | 142 | 0.0 | 0.0 | 0.00 | 0.00 | 0.00 | 45 | 1015.5 |
| 20260902122329 | 55 | 142 | 0.0 | 0.0 | 0.00 | 0.00 | 0.00 | 45 | 1015.6 |
| 20260902121824 | 54 | 141 | 0.0 | 0.0 | 0.00 | 0.00 | 0.00 | 45 | 1015.6 |
| 20260902121315 | 54 | 141 | 0.0 | 0.0 | 0.00 | 0.00 | 0.00 | 44 | 1015.7 |
| 20260902120827 | 54 | 142 | 0.0 | 0.0 | 0.00 | 0.00 | 0.00 | 45 | 1015.7 |
| 20260902120319 | 54 | 141 | 0.0 | 0.0 | 0.00 | 0.00 | 0.00 | 45 | 1015.7 |
| 20260902115830 | 54 | 141 | 0.0 | 0.0 | 0.00 | 0.00 | 0.00 | 45 | 1015.9 |
| 20260902115322 | 55 | 142 | 0.0 | 0.0 | 0.00 | 0.00 | 0.00 | 45 | 1015.9 |
| 20260902114813 | 55 | 142 | 0.0 | 0.0 | 0.00 | 0.00 | 0.00 | 45 | 1015.8 |
| 20260902114323 | 54 | 142 | 0.0 | 0.0 | 0.00 | 0.00 | 0.00 | 45 | 1015.8 |
| 20260902113814 | 54 | 141 | 0.0 | 0.0 | 0.00 | 0.00 | 0.00 | 45 | 1015.8 |
| 20260902113330 | 54 | 142 | 0.0 | 0.0 | 0.00 | 0.00 | 0.00 | 45 | 1015.9 |
| 20260902112822 | 55 | 141 | 0.0 | 0.0 | 0.00 | 0.00 | 0.00 | 45 | 1015.7 |
| 20260902112312 | 55 | 141 | 0.0 | 0.0 | 0.00 | 0.00 | 0.00 | 44 | 1015.7 |
| 20260902111823 | 55 | 141 | 0.0 | 0.0 | 0.00 | 0.00 | 0.00 | 43 | 1015.7 |
| 20260902111314 | 55 | 141 | 0.0 | 0.0 | 0.00 | 0.00 | 0.00 | 43 | 1015.8 |
| 20260902110824 | 55 | 141 | 0.0 | 0.0 | 0.00 | 0.00 | 0.00 | 44 | 1015.7 |
| 20260902110315 | 56 | 142 | 0.0 | 0.0 | 0.00 | 0.00 | 0.00 | 44 | 1015.6 |
| 20260902105847 | 56 | 142 | 0.0 | 0.0 | 0.00 | 0.00 | 0.00 | 43 | 1015.7 |
| 20260902105317 | 56 | 141 | 0.0 | 0.0 | 0.00 | 0.00 | 0.00 | 42 | 1015.7 |
| 20260902104828 | 56 | 142 | 0.0 | 0.0 | 0.00 | 0.00 | 0.00 | 42 | 1015.8 |
| 20260902104323 | 56 | 141 | 0.0 | 0.0 | 0.00 | 0.00 | 0.00 | 43 | 1015.8 |
| 20260902103814 | 56 | 141 | 0.0 | 0.0 | 0.00 | 0.00 | 0.00 | 42 | 1015.8 |
| 20260902103325 | 56 | 142 | 0.0 | 0.0 | 0.00 | 0.00 | 0.00 | 42 | 1015.8 |
| 20260902102817 | 57 | 142 | 0.0 | 0.0 | 0.00 | 0.00 | 0.00 | 42 | 1015.9 |
| 20260902102327 | 57 | 142 | 0.0 | 0.0 | 0.00 | 0.00 | 0.00 | 41 | 1015.9 |
| 20260902101818 | 57 | 142 | 0.0 | 0.0 | 0.00 | 0.00 | 0.00 | 41 | 1015.9 |
| 20260902101330 | 57 | 141 | 0.0 | 0.0 | 0.00 | 0.00 | 0.00 | 41 | 1015.9 |
| 20260902100841 | 57 | 141 | 0.0 | 1.0 | 0.00 | 0.00 | 0.00 | 42 | 1015.9 |
| 20260902100312 | 56 | 141 | 0.0 | 0.0 | 0.00 | 0.00 | 0.00 | 43 | 1016.1 |
| 20260902095822 | 56 | 142 | 0.0 | 0.0 | 0.00 | 0.00 | 0.00 | 44 | 1016.0 |
| 20260902095318 | 56 | 141 | 0.0 | 0.0 | 0.00 | 0.00 | 0.00 | 44 | 1016.0 |
| 20260902094829 | 56 | 142 | 0.0 | 0.0 | 0.00 | 0.00 | 0.00 | 44 | 1016.1 |
| 20260902094321 | 56 | 142 | 0.0 | 0.0 | 0.00 | 0.00 | 0.00 | 44 | 1016.1 |
| 20260902093832 | 57 | 142 | 0.0 | 0.0 | 0.00 | 0.00 | 0.00 | 44 | 1016.1 |
| 20260902093322 | 57 | 142 | 0.0 | 0.0 | 0.00 | 0.00 | 0.00 | 43 | 1016.0 |
| 20260902092812 | 57 | 141 | 0.0 | 0.0 | 0.00 | 0.00 | 0.00 | 43 | 1016.1 |
| 20260902092325 | 57 | 142 | 0.0 | 0.0 | 0.00 | 0.00 | 0.00 | 43 | 1016.1 |
| 20260902091818 | 57 | 142 | 0.0 | 0.0 | 0.00 | 0.00 | 0.00 | 43 | 1016.1 |
| 20260902091328 | 57 | 141 | 0.0 | 0.0 | 0.00 | 0.00 | 0.00 | 43 | 1016.2 |
| 20260902090825 | 57 | 141 | 0.0 | 0.0 | 0.00 | 0.00 | 0.00 | 44 | 1016.1 |